Weather Roundup
Issued by NWS Chicago, IL

Home | Current Version | Previous Version | Text Only | Print | Product List | Glossary On
Versions: 1 2 3 4 5 6 7 8 9 10 11 12 13 14 15 16 17 18 19 20 21 22 23 24 25 26 27 28 29 30 31 32 33 34 35 36 37 38 39 40 41 42 43 44 45 46 47 48 49 50
000
NZUS59 KLOT 240710
HRRLOT

CHICAGO AREA WEATHER ROUNDUP
NATIONAL WEATHER SERVICE CHICAGO/ROMEOVILLE IL
200 AM CDT THU APR 24 2014

NOTE: "FAIR" INDICATES FEW OR NO CLOUDS BELOW 12,000 FEET WITH NO
SIGNIFICANT WEATHER AND/OR OBSTRUCTIONS TO VISIBILITY.

* THESE STATIONS ARE NOT UNDER NWS QUALITY CONTROL. THEY ALSO MAY NOT
  REPORT WEATHER SUCH AS PRECIPITATION OR FOG.

ILZ005-006-012>014-019>023-240800-
NORTHEAST ILLINOIS

CITY           SKY/WX    TMP DP  RH WIND       PRES   REMARKS
OHARE          LGT RAIN  39  30  70 NE10      30.07F
MIDWAY         LGT RAIN  41  35  79 N8        30.07S
AURORA         CLOUDY    40  32  73 NE13      30.05S
LANSING*       LGT RAIN  42  37  81 N6        30.07R
JOLIET*        CLOUDY    41  35  79 NE10      30.05F
WAUKEGAN       CLOUDY    36  31  82 CALM      30.08S
DUPAGE AIRPORT CLOUDY    38  33  82 NE8       30.06F
WHEELING       LGT RAIN  38  31  76 E5        30.08F
KANKAKEE*      CLOUDY    42  38  88 E5        30.04F
MORRIS*        CLOUDY    42  35  75 NE3       30.04S
LEWIS AIRPORT* CLOUDY    40  35  82 NE9       30.05S
NORTHERLY IS     N/A     40  32  73 N9          N/A
$$

WIZ051-052-058>065-066-070>072-240800-
SOUTHEAST WISCONSIN

CITY           SKY/WX    TMP DP  RH WIND       PRES   REMARKS
MILWAUKEE      LGT RAIN  38  26  62 E3        30.10R
KENOSHA*       LGT RAIN  36  30  79 CALM      30.09S
RACINE*        LGT RAIN  38  28  67 CALM      30.11R
BURLINGTON     MIX PCPN  34  29  82 NE3       30.09S
WAUKESHA       LGT RAIN  34  27  75 CALM      30.11R
WEST BEND      CLOUDY    37  14  38 CALM      30.10R
$$

INZ001>003-010>013-019-020-240800-
NORTHWEST INDIANA

CITY           SKY/WX    TMP DP  RH WIND       PRES   REMARKS
GARY*          DRIZZLE   44  38  78 N6        30.07S
MICHIGAN CITY* NOT AVBL
RENSSELAER*    NOT AVBL
VALPARAISO     LGT RAIN  43  36  76 E7        30.05R
$$

LMZ740>746-240800-
SOUTHERN LAKE MICHIGAN

STATION/POSITION TIME  SKY/WX   TEMP WIND        PRES    VSBY
                                AIR  DIR/SP/G
                 (UTC)          (F)  (DEG/KT/KT) (MB)    (MI)
HARRISON CRIB    0700            39  350/  8/  9   N/A
BURNHAM HARBOR   0700            40   20/  8/  9   N/A
CALUMET HARBOR   0700            41  350/  8/ 10 1019.1F
BURNS HARBOR     NOT AVBL
MICHIGAN CITY    0700            46   50/  4/  5   N/A
$$

ABBREVIATIONS USED IN REMARKS
   TC - TEMPERATURE IN CELSIUS
  WCI - WIND CHILL INDEX
   HX - HEAT INDEX
  VSB - VISIBILITY
$$



USA.gov is the U.S. government's official web portal to all federal, state and local government web resources and services.